Total_Precipitation_Accumulation
0.01 0.02 0.02 0.04 0.05 0.09 0.12 0.15 0.15 0.20 0.26 0.32 0.24 0.20 0.14 0.12 0.07 0.09 0.05 0.02 0.02 0.06 0.14 0.14 0.15 0.11 0.10 0.07 0.05 0.06 0.06 0.09 0.10 0.14 0.18 0.15 0.12 0.12 0.07 0.11 0.07 0.08 0.09
0.00 0.02 0.05 0.07 0.07 0.09 0.13 0.14 0.11 0.11 0.13 0.21 0.23 0.23 0.14 0.13 0.10 0.07 0.09 0.05 0.05 0.02 0.11 0.21 0.25 0.20 0.14 0.09 0.03 0.03 0.05 0.05 0.06 0.10 0.13 0.12 0.09 0.05 0.03 0.02 0.02 0.02 0.04
0.00 0.00 0.00 0.04 0.09 0.07 0.09 0.11 0.12 0.12 0.10 0.11 0.15 0.21 0.21 0.20 0.13 0.07 0.10 0.10 0.04 0.03 0.03 0.07 0.21 0.31 0.24 0.15 0.09 0.01 0.01 0.00 0.01 0.03 0.05 0.03 0.02 0.00 0.00 0.00 0.01 0.03 0.05
0.00 0.00 0.00 0.00 0.05 0.13 0.13 0.09 0.06 0.09 0.10 0.09 0.11 0.15 0.22 0.21 0.15 0.06 0.07 0.19 0.15 0.06 0.10 0.10 0.14 0.29 0.32 0.23 0.15 0.08 0.03 0.01 0.00 0.01 0.01 0.00 0.00 0.00 0.00 0.00 0.00 0.01 0.03
0.00 0.00 0.00 0.00 0.01 0.08 0.19 0.15 0.08 0.06 0.07 0.08 0.10 0.13 0.20 0.18 0.20 0.18 0.12 0.14 0.25 0.16 0.07 0.08 0.15 0.25 0.35 0.43 0.34 0.22 0.16 0.10 0.01 0.01 0.01 0.00 0.00 0.00 0.00 0.00 0.00 0.00 0.00
0.00 0.00 0.00 0.00 0.00 0.02 0.08 0.20 0.18 0.15 0.12 0.09 0.07 0.08 0.16 0.25 0.25 0.23 0.16 0.10 0.16 0.21 0.09 0.05 0.10 0.16 0.29 0.45 0.49 0.38 0.24 0.16 0.08 0.02 0.03 0.02 0.00 0.00 0.00 0.00 0.00 0.00 0.00
0.00 0.00 0.00 0.01 0.00 0.01 0.02 0.07 0.20 0.22 0.28 0.33 0.34 0.24 0.15 0.23 0.28 0.28 0.24 0.16 0.16 0.12 0.19 0.13 0.19 0.16 0.26 0.37 0.40 0.32 0.27 0.16 0.13 0.11 0.10 0.02 0.01 0.00 0.00 0.00 0.00 0.00 0.00
0.00 0.00 0.01 0.01 0.01 0.01 0.01 0.01 0.07 0.28 0.59 0.81 0.85 0.59 0.40 0.41 0.30 0.29 0.29 0.25 0.16 0.09 0.17 0.22 0.23 0.24 0.33 0.38 0.33 0.39 0.39 0.33 0.21 0.21 0.29 0.17 0.03 0.00 0.00 0.00 0.00 0.00 0.00
0.00 0.01 0.01 0.02 0.01 0.02 0.02 0.01 0.02 0.25 0.70 0.83 0.86 1.14 1.09 0.74 0.59 0.39 0.29 0.28 0.42 0.53 0.47 0.48 0.52 0.45 0.36 0.33 0.30 0.36 0.36 0.44 0.56 0.52 0.53 0.44 0.22 0.05 0.03 0.03 0.00 0.00 0.00
0.00 0.01 0.02 0.02 0.02 0.02 0.02 0.02 0.02 0.06 0.50 1.00 1.20 0.88 0.63 0.55 0.48 0.42 0.39 0.40 0.34 0.51 0.82 1.37 1.51 1.66 1.69 1.61 1.45 1.27 1.25 1.25 1.21 1.39 1.44 1.32 1.15 0.84 0.35 0.12 0.04 0.00 0.00
0.00 0.01 0.02 0.02 0.02 0.03 0.04 0.03 0.03 0.04 0.05 0.13 0.31 0.64 1.02 0.91 0.54 0.32 0.23 0.17 0.19 0.21 0.30 0.31 0.64 1.03 1.06 0.98 0.93 1.04 1.05 1.40 1.38 1.37 1.44 1.27 1.09 1.01 0.57 0.21 0.12 0.02 0.00
0.01 0.01 0.02 0.02 0.02 0.02 0.03 0.02 0.03 0.04 0.04 0.06 0.16 0.28 0.29 0.38 0.50 0.60 0.45 0.25 0.16 0.10 0.12 0.16 0.21 0.31 0.30 0.34 0.44 0.54 0.46 0.47 0.68 0.72 0.71 0.72 0.63 0.57 0.48 0.32 0.19 0.11 0.04
0.01 0.01 0.01 0.01 0.02 0.02 0.03 0.03 0.03 0.05 0.06 0.08 0.15 0.21 0.27 0.29 0.23 0.23 0.26 0.27 0.28 0.21 0.19 0.23 0.24 0.25 0.26 0.30 0.31 0.41 0.51 0.51 0.42 0.49 0.46 0.38 0.33 0.34 0.31 0.33 0.26 0.17 0.06
0.03 0.02 0.01 0.01 0.01 0.02 0.03 0.04 0.05 0.06 0.07 0.10 0.20 0.42 0.40 0.39 0.44 0.45 0.34 0.33 0.28 0.20 0.23 0.29 0.32 0.35 0.39 0.45 0.46 0.70 0.75 0.73 0.71 0.68 0.60 0.50 0.49 0.45 0.39 0.37 0.37 0.34 0.31
0.03 0.02 0.02 0.02 0.02 0.02 0.05 0.05 0.05 0.05 0.05 0.11 0.16 0.23 0.32 0.51 0.52 0.58 0.68 0.65 0.55 0.36 0.25 0.22 0.38 0.52 0.55 0.52 0.58 0.55 0.52 0.68 0.81 0.81 0.77 0.66 0.57 0.62 0.71 0.63 0.54 0.48 0.45
0.02 0.02 0.03 0.05 0.04 0.06 0.07 0.12 0.10 0.09 0.08 0.05 0.07 0.14 0.30 0.60 0.76 0.79 0.82 0.84 0.93 0.81 0.65 0.57 0.58 0.37 0.36 0.38 0.57 0.55 0.49 0.48 0.77 0.94 0.94 1.06 1.11 0.86 0.64 0.74 0.79 0.68 0.61
0.03 0.03 0.03 0.06 0.15 0.14 0.22 0.22 0.24 0.17 0.14 0.13 0.08 0.13 0.22 0.38 0.48 0.62 0.64 0.78 0.78 0.83 1.27 1.18 0.70 0.56 0.54 0.40 0.37 0.42 0.43 0.35 0.33 0.48 0.68 0.87 1.16 1.69 1.50 1.07 1.03 1.21 1.03
0.12 0.10 0.07 0.09 0.15 0.23 0.34 0.39 0.29 0.40 0.32 0.24 0.31 0.22 0.25 0.26 0.29 0.29 0.41 0.58 0.68 0.86 1.03 1.28 1.50 1.24 1.04 0.97 0.73 0.52 0.32 0.30 0.30 0.42 0.43 0.46 0.59 0.87 1.27 1.47 1.19 1.16 1.37
0.23 0.28 0.33 0.30 0.35 0.50 0.53 0.74 0.50 0.32 0.36 0.56 0.52 0.57 0.58 0.53 0.55 0.58 0.55 0.49 0.54 0.61 0.94 1.21 1.38 1.40 1.50 1.40 1.14 0.97 0.91 0.69 0.41 0.34 0.30 0.36 0.48 0.50 0.57 0.87 1.23 1.22 1.04
0.23 0.36 0.60 0.78 0.80 0.74 0.80 0.71 0.64 0.72 0.60 0.79 0.83 0.51 0.67 0.79 0.71 0.64 0.78 0.84 0.73 0.72 0.86 1.09 1.34 1.45 1.50 1.46 1.28 1.20 1.14 1.00 0.98 0.82 0.66 0.50 0.47 0.54 0.54 0.51 0.52 0.69 0.88
0.06 0.16 0.32 0.57 0.57 0.53 0.61 0.43 0.31 0.63 0.65 0.57 0.85 0.64 0.48 0.46 0.51 0.35 0.30 0.47 0.57 0.70 0.86 0.93 1.06 1.13 1.22 1.24 1.36 1.42 1.32 1.31 1.25 1.07 0.88 0.82 0.75 0.66 0.66 0.61 0.59 0.57 0.57
0.00 0.02 0.02 0.07 0.27 0.26 0.19 0.08 0.06 0.22 0.31 0.25 0.27 0.24 0.21 0.19 0.21 0.26 0.27 0.22 0.24 0.29 0.34 0.46 0.57 0.66 0.82 0.90 0.91 0.93 1.01 1.07 1.08 0.94 1.05 1.08 0.96 0.97 1.05 1.02 0.99 0.81 0.66
0.00 0.00 0.00 0.00 0.01 0.04 0.04 0.05 0.02 0.03 0.05 0.09 0.10 0.09 0.07 0.06 0.09 0.11 0.13 0.13 0.14 0.16 0.19 0.17 0.23 0.31 0.33 0.35 0.34 0.39 0.42 0.44 0.63 0.67 0.72 0.76 0.73 0.81 0.87 0.99 1.07 1.09 1.00
0.00 0.00 0.00 0.00 0.00 0.00 0.00 0.01 0.01 0.00 0.00 0.01 0.01 0.02 0.02 0.02 0.02 0.05 0.04 0.04 0.04 0.05 0.06 0.07 0.08 0.08 0.07 0.07 0.08 0.10 0.13 0.15 0.14 0.13 0.12 0.17 0.18 0.26 0.29 0.31 0.30 0.29 0.36
0.00 0.00 0.00 0.00 0.00 0.00 0.00 0.00 0.00 0.00 0.00 0.00 0.00 0.00 0.00 0.00 0.00 0.01 0.01 0.01 0.01 0.02 0.01 0.02 0.02 0.01 0.01 0.00 0.00 0.01 0.02 0.02 0.06 0.07 0.05 0.05 0.05 0.07 0.10 0.11 0.05 0.03 0.05
0.00 0.00 0.00 0.00 0.00 0.00 0.00 0.00 0.00 0.00 0.00 0.00 0.00 0.00 0.00 0.00 0.00 0.00 0.00 0.01 0.01 0.01 0.01 0.00 0.00 0.00 0.00 0.00 0.00 0.01 0.01 0.01 0.01 0.04 0.04 0.02 0.01 0.02 0.03 0.02 0.01 0.01 0.01